Total_Precipitation_Accumulation
0.04 0.09 0.05 0.06 0.20 0.44 0.86 0.95 1.10 1.10 0.81 0.67 0.68 0.81 0.93 0.99 0.96 1.01 1.29 1.32 1.35 1.48 1.68 1.90 1.92 1.74 1.40 1.17 1.26 1.40 1.38 1.26
0.04 0.07 0.08 0.07 0.13 0.40 0.50 0.77 0.94 0.65 0.41 0.36 0.41 0.49 0.59 0.96 1.04 0.77 1.01 1.26 1.25 1.18 1.47 2.23 2.39 1.58 1.13 1.19 1.45 1.44 1.29 1.18
0.01 0.03 0.05 0.08 0.17 0.40 0.49 0.34 0.36 0.43 0.37 0.23 0.16 0.22 0.36 0.70 1.03 0.82 0.86 0.98 1.06 1.20 1.00 1.10 1.67 1.96 1.83 1.41 1.44 1.68 1.50 1.44
0.02 0.04 0.04 0.06 0.09 0.16 0.30 0.17 0.13 0.22 0.41 0.56 0.53 0.34 0.41 1.14 1.44 1.12 0.90 0.99 1.03 1.14 1.10 1.02 1.18 1.84 1.87 1.50 1.18 1.39 1.79 1.65
0.00 0.00 0.00 0.03 0.03 0.07 0.29 0.15 0.08 0.16 0.26 0.45 0.67 0.70 0.53 0.74 1.22 1.09 0.88 1.17 1.13 0.99 1.17 1.22 1.15 1.16 1.48 1.49 1.26 1.16 1.74 1.72
0.01 0.01 0.00 0.00 0.06 0.08 0.23 0.22 0.28 0.18 0.29 0.51 0.82 0.90 0.89 1.01 1.45 1.74 1.40 1.33 1.41 1.39 1.36 1.52 1.59 1.72 1.34 1.86 1.83 1.78 2.03 1.85
0.04 0.02 0.02 0.02 0.02 0.11 0.19 0.17 0.28 0.33 0.50 0.62 0.68 0.79 0.76 0.98 1.37 2.03 2.35 2.12 1.93 1.72 1.64 1.58 1.52 1.61 1.74 2.00 2.42 2.53 2.58 2.34
0.09 0.06 0.06 0.07 0.05 0.17 0.20 0.20 0.32 0.37 0.50 0.61 0.68 0.86 1.11 1.09 1.16 1.75 2.37 2.99 3.02 2.65 2.54 2.13 1.87 1.65 1.73 2.09 2.69 2.98 3.34 3.41
0.20 0.18 0.18 0.21 0.20 0.22 0.34 0.33 0.50 0.49 0.58 0.79 0.80 0.89 1.10 1.38 1.26 1.41 2.19 2.60 2.84 2.74 2.95 3.20 3.08 2.80 2.55 2.35 2.49 2.55 2.62 2.90
0.30 0.27 0.28 0.31 0.31 0.29 0.34 0.36 0.59 0.63 0.67 0.92 1.05 1.14 1.27 1.25 1.19 1.27 1.79 2.23 2.46 2.58 2.97 2.91 3.06 3.26 3.48 3.48 3.01 2.63 2.50 2.44
0.40 0.33 0.35 0.34 0.35 0.38 0.54 0.42 0.40 0.59 0.78 0.84 0.80 0.94 1.21 1.30 1.31 1.40 1.54 2.08 2.75 3.19 3.41 3.24 3.29 3.30 3.48 3.85 3.80 3.46 3.34 3.02
0.64 0.70 0.57 0.60 0.58 0.58 0.68 0.77 0.87 0.92 0.89 0.87 1.01 1.22 1.61 1.74 1.86 1.91 2.13 2.68 2.96 2.99 3.35 3.62 3.30 3.33 3.65 3.87 4.03 4.03 3.82 3.77
0.44 0.98 1.13 1.08 1.09 1.23 1.08 1.00 1.13 1.24 1.19 1.26 1.76 2.17 2.34 2.27 2.29 2.56 2.56 2.45 2.54 2.64 2.91 3.09 3.18 3.54 3.73 3.81 3.91 3.82 3.63 3.68
0.28 0.49 0.78 1.32 0.86 1.20 1.04 1.05 1.42 1.70 1.83 1.98 2.18 2.36 2.44 2.64 2.68 2.48 2.33 2.61 2.91 2.83 2.98 3.26 3.13 3.24 3.64 3.98 4.10 4.02 3.95 3.94
0.31 0.38 0.46 0.58 0.80 1.43 2.21 1.21 1.48 1.80 1.92 1.77 1.91 2.34 2.44 2.48 2.34 2.07 1.82 1.93 2.07 2.32 2.34 2.41 2.52 2.67 2.80 3.15 3.40 3.62 3.43 3.37
0.30 0.40 0.50 0.53 0.57 0.60 0.79 0.85 1.53 2.19 2.04 1.89 2.14 2.17 2.24 2.25 2.14 1.75 1.49 1.52 1.51 1.49 1.52 1.75 1.91 2.11 2.45 2.47 2.68 2.99 3.09 3.10
0.26 0.32 0.36 0.42 0.54 0.71 0.72 0.72 1.17 1.67 1.98 2.38 2.03 2.39 2.40 1.96 1.99 1.79 1.61 1.54 1.49 1.62 1.46 1.59 1.94 1.99 2.55 2.51 2.46 2.66 2.82 2.85
0.20 0.27 0.30 0.37 0.41 0.34 0.40 0.50 0.64 0.85 1.58 2.59 2.57 2.85 3.86 2.89 2.01 1.99 1.94 2.18 2.05 1.87 2.03 1.98 1.95 1.91 2.57 2.56 2.60 2.37 2.77 2.83
0.22 0.22 0.29 0.32 0.28 0.23 0.20 0.21 0.30 0.39 0.44 1.07 2.19 2.52 3.37 4.25 3.28 2.73 2.83 2.64 2.62 2.27 2.14 2.11 1.96 2.60 2.77 3.02 3.36 2.82 2.50 2.66